Location: Newark
(11.4947°N, 0.1467°E)
Time: 21:48:25
(UTC+00:00)

Envisat - Pass Details

Date: 13 November 2019
Orbit: 764 x 766 km, 98.1° (Epoch: 14 December)

Event Time Altitude Azimuth Distance (km) Brightness Sun altitude
Rises 19:08:41 0° 194° (SSW) 3,223 6.6 -23.5°
Reaches altitude 10° 19:11:25 10° 208° (SSW) 2,297 6.0 -24.2°
Maximum altitude 19:15:21 23° 260° (W) 1,581 5.4 -25.1°
Drops below altitude 10° 19:19:19 10° 312° (NW) 2,297 5.8 -26.1°
Sets 19:22:03 0° 326° (NW) 3,223 6.5 -26.7°
